2024-125G

Last updated on Tue Jul 09 2024 00:02:04 GMT+0000 (Coordinated Universal Time)

1 60209U 24125G 24190.56980029 .00010442 00000+0 49625-3 0 9995 2 60209 97.3214 43.3326 0025220 247.3842 166.3046 15.19109044 669
UTC large
Height (km)
Speed (km/s)
/
Latitude / Longitude
Inclination (degrees)
Orbital Period (minutes)
Azimuth
Elevation
Range (km)
Doppler Factor

Next 0 passes for location: London (51.5072 / 0.1276)

Sorry there are no passes over London.